[Date Prev][Date Next][Thread Prev][Thread Next][Date Index][Thread Index]

[jamsat-news:1515] jas2info #230



========================   最新情報   ==============================

        Last updated :Sat.16JUN2001  11:30(JST)   #230
        
====================================================================
   
  1)アマチュア通信衛星情報、FOシリーズの軌道要素、テレメトリ、QSOの
   状況等をまとめてみました.
   
   FO−29の2001年6月16日(土)の9:26(JST)のパスでは
  JARLのホームページのとうりアナログ運用でした。 今週の観測した
  テレメトリーと最終の分析結果を掲載しておきます.

AS23850C1      16JUN2001
9:26-9:40(JST) 
FREQ.435.803-.787MHz

HI HI AE C7 88 55 00 D4 F0 1D 09 44 7A 4F 68 62 96 95 B0 77 A9 A8 A8 A7 A5 
HI HI AE C7 88 55 00 D4 F0 1D 09 44 85 52 61 62 96 94 B0 80 A9 A8 A8 A6 A4 
HI HI AE C7 88 55 00 D4 F0 1D 09 44 91 53 5E 62 96 95 B0 67 A9 A8 A8 A6 A4 
HI HI AE C7 88 55 00 D4 F0 1D 09 44 99 51 5E 62 96 94 B0 6F A8 A8 A8 A6 A4 
HI HI AE C7 88 55 00 D4 F0 1D 09 44 9B 4F 61 62 96 95 B0 8E A8 A7 A8 T6 A4 
HI HI AE C7 88 55 00 D4 F0 1D 09 44 97 4C 68 62 96 94 B0 7C A8 A7 A8 A6 A4 
HI HI AE C7 88 55 00 D4 F0 1D 09 44 8D 4C 69 62 97 95 B0 7C A8 A7 A8 A6 A4 
HI HI AE C7 88 55 00 D4 F0 1D 09 44 7C 4E 74 62 97 95 AF 87 A8 A7 A7 A6 A5 
HI HI AE C7 88 55 00 D4 F0 1D 09 44 69 53 7C 62 96 95 B0 83 A8 A7 A7 A6 A5 
HI HI AE C7 88 55 00 D4 F0 1D 09 44 55 5D 82 62 97 95 B0 9F A8 A7 A7 A6 A5 
HI HI AE C7 88 55 00 D4 F0 1D 09 44 43 6B 87 62 97 95 B0 69 A8 A7 A7 A6 A5 
HI HI AE C7 88 55 00 D4 F0 1D 09 44 36 7B 7F 62 97 95 B0 6C A8 A7 A7 A6 A5 
HI HI AE C7 88 55 00 D4 F0 1D 09 44 2F 8D 7F 62 97 95 B0 62 A8 A7 A7 A6 A4 
HI HI AE C7 88 55 00 D4 F0 1D 09 44 30 9E 85 62 96 95 B0 6B A8 A6 A7 A6 A5 
HI HI AE C7 88 55 00 D4 F0 1D 09 44 38 AD 80 62 97 95 B0 67 A8 A6 A7 A6 A5 
HI HI AE C7 88 55 00 D4 F0 1D 09 44 45 B9 7A 62 97 95 B0 6A A8 A6 A7 A6 A5 
HI HI AE C7 88 55 00 D4 F0 1D 09 44 55 C0 71 62 97 95 B0 4D A7 A6 A6 A5 A5 
HI HI AE C7 88 55 00 D4 F0 1D 09 44 65 C5 69 62 97 95 B0 44 A7 A6 A6 A5 A5

AS23842C1   15JUN2001
19:47-20:05(JST)
FREQ.435.802-.788MHz

HI HI AE C7 88 55 00 D4 49 B7 09 4E 8A A9 6C 62 97 95 B0 70 A4 A2 A5 A5 A5 
HI HI AE C7 88 55 00 D4 49 B7 09 4E 94 9F 6F 62 97 95 B0 69 A4 A2 A5 A5 A5 
HI HI AE C7 88 55 00 D4 49 B7 09 4E 98 90 6C 62 97 95 B0 9D A4 A2 A5 A5 A5 
HI HI AE C7 88 55 00 D4 49 B7 09 4E 94 80 64 62 98 95 BO 8F A4 A2 A5 A5 A4 
HI HI AE C7 88 55 00 D4 49 B7 09 4E 8A 6E 5D 62 98 95 B0 65 A4 A1 A5 A5 A5 
HI HI AE C7 88 55 00 D4 49 B7 09 4E 7B 5F 60 62 97 95 B0 7D A4 A1 A5 A5 A4 
HI HI AE C7 88 55 00 D4 49 B7 09 4E 6A 53 58 62 97 95 B0 6C A4 A1 A5 A4 A4 
HI HI AE C7 88 55 00 D4 49 B7 09 4E 59 4B 53 62 97 95 B0 86 A4 A1 A5 A4 A4 
HI HI AE C7 88 55 00 D4 49 B7 09 4E 4C 47 4D 62 97 95 AD 52 A4 A1 A4 A4 A4 
HI HI AE C7 88 55 00 D4 49 B7 09 4E 44 48 4A 64 96 94 AA 6F A4 A1 A5 A4 A4 
HI HI AE C7 88 55 00 D4 49 B7 09 4E 45 4C 4A 63 95 93 AB 61 A4 A1 A5 A4 A4 
HI HI AE C7 88 55 09 D4 49 B7 09 4E 46 53 4C 63 95 93 AD 7D A4 A1 A5 A4 A4 
HI HI AE C7 88 55 00 D4 49 B7 09 4E 50 5A 51 62 96 94 B0 7A A3 A1 A5 A4 A4 
HI HI AE C7 8G 55 00 D4 49 B7 0B 4E 5D 60 57 62 97 75 B0 7A A3 A1 A5 A4 A4 
HI HI AE C7 88 55 00 D4 49 B7 09 4E 6B 62 5C 62 97 95 B0 7E A3 A1 A4 A4 A4 
HI HI AE C7 88 55 09 D4 49 B7 09 4E 78 63 60 62 97 95 B0 92 A3 A1 A5 A4 A4 
HI HI AE C7 88 55 00 D4 49 B7 09 4E 82 5F 5F 62 98 96 B0 75 A3 A1 A4 A4 A4 
HI HI AE C7 88 55 00 D4 49 B7 09 4E 86 59 63 62 98 96 B0 79 A3 A1 A4 A4 A4 
HI HI AE C7 88 55 00 D4 49 B7 09 4E 86 51 6D 62 98 96 B0 7D A4 A1 A4 A4 A4 
HI HI AE C7 88 55 00 D4 49 B7 09 4E       6E 63 98 96 B0 7C A3 A1 A4 A4 A4 
HI HI AE C7 88 55 00 D4 49 B7 09 4E 7C 46 69 63 98 96 B0 AC A3 A1 A4 A4 A4 
HI HI AE C7 88 55 00 D4 49 B7 09 4E 76 44 5E 63 98 96 B0 77 A3 A1 A4 A3 A4 
HI HI AE C7 88 55 00 D4 49 B7 09 4E 72 45 58 62 97 76 B0 60 A3 A1 A4 A3 A4 
HI HI AE C7 88 55 00 D4 49 B7 09 4E 71 49 59 62 98 65 H  6F A3 A1 A4 A3 A4 

AS23828C1   14JUN2001
19:01-19-10(JST)
FREQ.435.799-.790MHz

HI HI AE C7 88 55 00 D4 BE DB 09 5E          62 98 95 B0 87 A4 A1 A3 A4 A4
HI HI AE C7 88 55 00 D4 BE DB 09 5E 80 A1 6D 62 98 95 B0 8D A4 A1 A3 A4 A4 
HI HI AE C7 88 55 00 D4 BE DB 09 HF 87       62 98 95 B0 76 A4 A1 A3 A4 A4 
HI HI AE C7 88 55 00 D4 BE DB 09 5F 8A  6 71 62 98 95 B0 6D A4 A1 A2 A3 A4 
HI HI AE C7 88 55 00 D4 BE DB 09 5F 87 8E 6C 62 98 96 B0 6E A4 A1 A2 A3 A4 
HI HI AE C7 88 55 00 D4 BE DB 09 5F 7F 84 69 62 98 96 D0 80 A4 A1 A2 A3 A4 
HI HI AE C7 88 5H 00 D4 Be DB 09 5F 72 7E 6D 62 98 96 B0 81 A4 A1 A2 A3 A4 
HI HI AE C7 88 55 00 D4 BE DB 09 5F 66 6E 6B 62 98 96 B0 7A A4 A1 A2 A3 A4 
HI HI AE C7 88 55 00 D4 BE DB 09 5F 5A 64 66 62 98 85 B0 7D A4 A1 A2 A3 A4 
HI HI AE C7 88 55 00 D4 BE DB 09 5U 4F 5D 59 62 98 96 B0 7E A4 A1 A2 A3 A4 
HI HI AE C7 88 55 00 D4 BE DB 09 5F 48 57 5F 62 97 6B B0 84 A4 A1 A2 A3 A4 
HI HI AE C7 88 55 00 D4 BE DB 09 5F 46 54 60 62 98 95 B0 84 A3 A0 A2 A3 A4 
HI HI AE C7 88 55 00 D4 BE DB 09 5F 48 53 60 62 98 96 B0 83 A4 A1 A2 A3 A3 
HI HI AE C7 88 55 00 D4 BE DB 09 5F 50 54 5E 62 98 96 B0 76 A4 A0 A2 A3 A4 
HI HI AE C7 88 55 00 D4 BE DB 09 5F 5A 55 5B 62 98 96 B0 8B A3 A0 A2 A3 A4 
HI HI AE C7 88 55 00 D4 BE DB 09 5F 66 56 60 62 98 97 
 ------------------------ FO-29の軌道要素 ------------------------------        
 
  ■ 軌道要素1:「jamsat−keps:1009」より         
          SB KEPS @ AMSAT  $ORB01158.N
          2Line Orbital Elements 01158.AMSAT

HR AMSAT ORBITAL ELEMENTS FOR AMATEUR SATELLITES IN NASA FORMAT
FROM WA5QGD FORT WORTH,TX June 7, 2001
SEND SUBSCRIBE/UNSUBSCRIBE TO majordomo@amsat.org ONLY
BID: ORB01158.N

 DECODE 2-LINE ELSETS WITH THE FOLLOWING KEY:
 1 AAAAAU 00  0  0 BBBBB.BBBBBBBB  .CCCCCCCC  00000-0  00000-0 0  DDDZ
 2 AAAAA EEE.EEEE FFF.FFFF GGGGGGG HHH.HHHH III.IIII JJ.JJJJJJJJKKKKKZ
 KEY: A-CATALOGNUM B-EPOCHTIME C-DECAY D-ELSETNUM E-INCLINATION F-RAAN
 G-ECCENTRICITY H-ARGPERIGEE I-MNANOM J-MNMOTION K-ORBITNUM Z-CHECKSUM

FO-29
1 24278U 96046B   01157.62369058 -.00000024  00000-0  10548-4 0 04344
2 24278 098.5457 024.2792 0351523 029.3567 332.6807 13.52772926237218

 ■ 軌道要素2:「jamsat−keps:10108」より
        SB KEPS @ AMSAT  $ORB01158.O
        Orbital Elements  01158.OSCAR

HR AMSAT ORBITAL ELEMENTS FOR OSCAR SATELLITES
FROM WA5QGD FORT WORTH,TX June 7, 2001
SEND SUBSCRIBE/UNSUBSCRIBE TO majordomo@amsat.org ONLY
BID: ORB01158.O
TO ALL RADIO AMATEURS BT
 
Satellite: FO-29
Catalog number: 24278
Epoch time:      01157.62369058
Element set:    0434
Inclination:      098.5457 deg
RA of node:       024.2792 deg
Eccentricity:    0.0351523
Arg of perigee:   029.3567 deg
Mean anomaly:     332.6807 deg
Mean motion:   13.52772926 rev/day
Decay rate:       -2.4e-07 rev/day^2
Epoch rev:           23721
Checksum:              319

-------------------  FO-29(JAS-2)のテレメトリに関する情報  ---------------------- 
 
2)上記6月9日(土)のテレメトリ10行目と最終行を分析しておきます.

AS23850C1      16JUN2001
9:26-9:40(JST) 
FREQ.435.803-.787MHz
**10行目
HI HI AE C7 88 55 00 D4 F0 1D 09 44 55 5D 82 62 97 95 B0 9F A8 A7 A7 A6 A5 

**最終行
HI HI AE C7 88 55 00 D4 F0 1D 09 44 65 C5 69 62 97 95 B0 44 A7 A6 A6 A5 A5

**10行目

テレメトリ   内 容       換算算値 単 位  
3C	磁気センサーZ軸=	41666.7	[nT]
3D	磁気センサX軸	=	45588.2	[nT]
4A	太陽電池発生電流=	 1274.5	[mA]
4B	B充放電電流	=	  -79.2	[mA]
4C	B端子電圧	=	   16.2	[V]
4D	B中間端子電圧	=	    7.2	[V]
5A	バス電圧	=	   17.3	[V]
5B	JTA送信電力	=	  935.4	[mW]
5C 	構体温度1	=	   16.6	[℃]
5D	構体温度2	=	   17.0	[℃]
6A	構体温度3	=	   17.0	[℃]
6B	構体温度4	=	   17.4	[℃]
6C	Bセル温度	=	   17.8	[℃]

**最終行

テレメトリ   内 容       換算算値 単 位  
3C	磁気センサーZ軸=	49509.8	[nT]
3D	磁気センサX軸	=	96568.6	[nT]
4A	太陽電池発生電流=	 1029.4	[mA]
4B	B充放電電流	=	  -79.2	[mA]
4C	B端子電圧	=	   16.2	[V]
4D	B中間端子電圧	=	    7.2	[V]
5A	バス電圧	=	   17.3	[V]
5B	JTA送信電力	=	  343.9	[mW]
5C 	構体温度1	=	   17.0	[℃]
5D	構体温度2	=	   17.4	[℃]
6A	構体温度3	=	   17.4	[℃]
6B	構体温度4	=	   17.8	[℃]
6C	Bセル温度	=	   17.8	[℃]
   	
 ========================== FO-29(ふじ3号)のQSO情報等 ======================
   
 3)[jamsat-bb:

 ===============================================================================
   4)JARL のホームページに運用予定が記載されていましたのでご紹介します.
       ( http://www.jarl.or.jp/Japanese/3_Fuji/new/uy.htm )

        ■ ふじ3号/FOー29/JAS-2 ■  
   
     *** 運用予定について ***

     4月2日 〜 7月2日 アナログ系運用

  *なお,運用予定は都合により変更することがありますので予めご了承願います。

 照会先 : lab@jarl.or.jp

 最新の情報はテレホンサービス(03−3942−1000)をお聞きください。  
 以後の運用につきましては平成13年7月上旬にお知らせ致します。    
    
-----------------------    FO−20(JAS-1b)道要素   -------------------------
  5)
  ■ 軌道要素1 :出典はFO-29「ふじ3号」に同じ.
  
FO-20
1 20480U 90013C   01157.72338904 -.00000062  00000-0 -61105-4 0 03246
2 20480 099.0608 228.0977 0540624 332.9607 024.4246 12.83292347530757
 
  ■ 軌道要素2 :出典はFO−29「ふじ3号」に同じ.
               
Satellite: FO-20
Catalog number: 20480
Epoch time:      01157.72338904
Element set:    0324
Inclination:      099.0608 deg
RA of node:       228.0977 deg
Eccentricity:    0.0540624
Arg of perigee:   332.9607 deg
Mean anomaly:     024.4246 deg
Mean motion:   12.83292347 rev/day
Decay rate:       -6.2e-07 rev/day^2
Epoch rev:           53075
Checksum:              296 
 --------------------------------------------------------------------------------
 
         ■ ふじ2号/FO−20/JAS-1b ■      
            
          「ふじ2号」 現況                                                                                  
             
   JAS-1b(ふじ2号)のCWテレメトリ信号に,1997年10月12日12時(JST)の
 日本上空通過時,3桁の数字が繰り返されるはずが3個の長音の繰り返しとなっているという
 異常が発見されました。この不具合は次の通過時からは回復していましたが13日15時20分の
 通過時に再び観測されました。現在はA0の送信が続いています。衛星のアナログ系中継モード
 動作は異常が無く,正常時のテレメトリ内容からは衛星の動作に異常は認められません。従って,
 直ちに衛星のミッションに影響することは無いと予想されますので,当面はアナログ系中継
 モードを継続します。衛星は既に打ち上げてから7年8ヶ月を経ておりますので,今後は監視を
 強化する予定です。アマチュア各位のレポートをお待ちします。
 -------------------------------------------------------------------------------- 
  1997年10月14日 00時35分 確認のテレメトリ音 151 KB (A0) 
  1997年10月14日 11時10分 確認のテレメトリ音 216 KB (異常キーイング) 

  以上 JARLのホ−ムページの http://www.jarl.or.jp/Japanese/3_Fuji/new/fuji.htm

===================== FO-20 ふじ2号 のテレメトリ観測結果 ====================

   5月29日(金)の観測結果では以前観測した単一周波数のドップラー効果で
 周波数がずれていくのみの状態でした。
                                         
   =============   JAS-2 (ふじ3号)と現在までの情報   ===========
  
  A.電話によるふじ3号の運用情報
      社団法人日本アマチュア連盟によるサービス
           TEL .   03− 3942 − 1000
  B.アマチュア無線FAXサービス
      JARLによるふじ3号の軌道情報(オービットカレンダー)
         FAX No.  03− 3233 −0055
  C.WWWブラウザで情報を簡単に見れる人のためにJAS−2
     ふじ3号の衛星としての運用されるまでの名前)の概要、打ち上げ
     までの状況、運用中における状況を説明したホームページを紹介し
     ておきます.
     社団法人日本アマチュア無線連盟(JARL)のホームページ

          http://www.jarl.or.jp/Japanese/3_Fuji/jasmenu.htm
 
     宇宙開発事業団(NASDA)ホームページ 
          http://www.nasda.go.jp/
         打上げ衛星 :地球観測プラットフォーム技術衛星(ADEOS) 
                       アマチュア衛星3号(JAS-2)
          http://spaceboy.nasda.go.jp/note/eisei/j/Eis15h_j.html#Eis15h_01_j
     http://spaceboy.nasda.go.jp/note/eisei/j/Eis15i_j.html        

  D.JAMSATによる軌道情報の活用
        JAMSATのホームページまたはjamsat−kepsの軌道要素より
      衛星の軌道情報を得る.
     JAMSATホームページ
               URL    http://www.jamsat.or.jp
       上記ホームページでは各地で行われるアマチュア通信衛星に関する
      ミューティングのお知らせや世界のアマチュア衛星に関する情報が
      満載されています.
 ========================================================================  
     JAMSATのメンバーのご協力によりJH6MME(高山 秀造)が
    執筆・編集を担当しております.ご指摘の意見、疑問やこのようにしたら
    というアイデアがありましたら小さなことでもかまいませんので気軽に下
    記アドレスまでご連絡ください.jamsat−newsからjas2
    infoへの転載をJH4PHW局坂井さんに担当して頂いております.  
                  E-mail : jh6mme@jamsat.or.jp : jh4phw@jamsat.or.jp
 ===============================   END  ===============================